Hourly Data Report for January 23, 2020

All times are specified in Local Standard Time (LST). Add 1 hour to adjust for Daylight Saving Time where and when it is observed.

PINAWA
MANITOBA
Current Station Operator: ECCC - MSC

50°10'38.020" N
96°03'53.000" W
268.00 m
503B1ER
71448
WEA

Download Data

Hourly Data (January 2020)
Hourly Data Report for January 23, 2020
TIME Temp Definition
°C
Dew Point Definition
°C
Rel Hum Definition
%
Wind Dir Definition
10's deg

Wind Spd Definition
km/h
Visibility Definition
km
Stn Press Definition
kPa
Hmdx Definition


Wind Chill Definition


Weather Definition


00:00 -6.9 LegendMM LegendMM 2 3   98.65   -8 LegendNANA
01:00 -6.8 LegendMM LegendMM 35 4   98.70   -9 LegendNANA
02:00 -6.9 LegendMM LegendMM 35 5   98.76   -9 LegendNANA
03:00 -6.8 LegendMM LegendMM 36 5   98.80   -9 LegendNANA
04:00 -6.6 LegendMM LegendMM 36 4   98.85   -9 LegendNANA
05:00 -6.1 LegendMM LegendMM 3 6   98.91   -9 LegendNANA
06:00 -6.0 LegendMM LegendMM 3 4   98.97   -8 LegendNANA
07:00 -6.0 LegendMM LegendMM 3 4   99.00   -8 LegendNANA
08:00 -5.9 LegendMM LegendMM 8 5   99.05   -8 LegendNANA
09:00 -5.8 LegendMM LegendMM 9 6   99.11   -9 LegendNANA
10:00 -6.2 LegendMM LegendMM 12 7   99.16   -10 LegendNANA
11:00 -5.7 LegendMM LegendMM 11 8   99.21   -9 LegendNANA
12:00 -5.5 LegendMM LegendMM 10 9   99.22   -10 LegendNANA
13:00 -5.2 LegendMM LegendMM 9 6   99.19   -8 LegendNANA
14:00 -5.2 LegendMM LegendMM 9 7   99.17   -8 LegendNANA
15:00 -4.9 LegendMM LegendMM 4 4   99.20   -7 LegendNANA
16:00 -5.1 LegendMM LegendMM 10 7   99.21   -8 LegendNANA
17:00 -5.5 LegendMM LegendMM 11 7   99.25   -9 LegendNANA
18:00 -5.6 LegendMM LegendMM 10 7   99.25   -9 LegendNANA
19:00 -5.6 LegendMM LegendMM 10 6   99.26   -8 LegendNANA
20:00 -5.8 LegendMM LegendMM 11 6   99.23   -9 LegendNANA
21:00 -6.0 LegendMM LegendMM 12 3   99.22   -7 LegendNANA
22:00 -6.2 LegendMM LegendMM 12 6   99.20   -9 LegendNANA
23:00 -6.2 LegendMM LegendMM 15 3   99.19   -8 LegendNANA

Notes on Data Quality.

Legend

  • E = Estimated
  • M = Missing
  • NA = Not Available*
  • [empty] = Indicates an unobserved value
Date modified: